GW0416 Weather Reports


time (UTC)temp
F
wind
direction
speed
knots
gust
knots
rain 1hr
in
rain 24hr
in
rain mn
in
humidity
%
barometer
mb
20260906230034 65 326 5.2 10.4 0.00 0.00 0.00 75 1016.0
20260906224541 64 350 7.8 10.4 0.00 0.00 0.00 76 1016.4
20260906223042 64 342 7.8 12.2 0.00 0.00 0.00 77 1016.3
20260906221538 64 346 7.8 13.0 0.00 0.00 0.00 78 1016.3
20260906220036 63 41 10.4 16.5 0.00 0.00 0.00 78 1016.2
20260906214537 63 39 10.4 16.5 0.00 0.00 0.00 79 1016.2
20260906213033 63 30 13.0 17.4 0.00 0.00 0.00 78 1016.3
20260906211534 62 16 12.2 16.5 0.00 0.00 0.00 80 1016.5
20260906210034 62 26 12.2 14.8 0.00 0.00 0.00 80 1016.6
20260906204553 62 32 12.2 15.6 0.00 0.00 0.00 79 1016.8
20260906203036 62 20 11.3 15.6 0.00 0.00 0.00 79 1016.7
20260906201534 62 34 10.4 15.6 0.00 0.00 0.00 79 1016.7
20260906200037 62 351 13.0 17.4 0.00 0.00 0.00 78 1016.6
20260906194535 62 34 12.2 20.9 0.00 0.00 0.00 76 1016.6
20260906193036 62 360 14.8 20.9 0.00 0.00 0.00 75 1016.4
20260906191537 61 32 16.5 24.3 0.00 0.00 0.00 76 1016.5
20260906190036 60 36 18.2 22.6 0.00 0.00 0.00 76 1016.6
20260906184536 61 16 18.2 23.5 0.00 0.00 0.00 77 1017.0
20260906183034 60 17 20.0 27.8 0.00 0.00 0.00 77 1016.7
20260906181544 58 38 18.2 23.5 0.00 0.00 0.00 82 1016.8
20260906180048 57 15 13.9 20.9 0.00 0.00 0.00 85 1017.9
20260906174537 56 22 13.0 17.4 0.00 0.00 0.00 87 1018.5
20260906173032 56 11 15.6 18.2 0.00 0.00 0.00 88 1018.6
20260906171547 55 15 13.9 20.9 0.00 0.00 0.00 89 1018.5
20260906170035 56 355 13.9 17.4 0.00 0.00 0.00 89 1018.6
20260906164536 57 11 11.3 14.8 0.00 0.00 0.00 90 1018.7
20260906163038 57 30 10.4 13.9 0.00 0.00 0.00 91 1018.7
20260906161537 57 30 9.6 13.0 0.00 0.00 0.00 91 1018.5
20260906160046 56 5 8.7 12.2 0.00 0.00 0.00 90 1018.9
20260906154537 56 360 7.0 13.0 0.00 0.00 0.00 89 1019.3
20260906153041 56 300 8.7 13.9 0.00 0.00 0.00 88 1019.4
20260906151542 58 15 6.1 10.4 0.00 0.00 0.00 90 1019.2
20260906150037 57 32 7.8 12.2 0.00 0.00 0.00 90 1019.2
20260906144542 57 26 8.7 13.9 0.00 0.00 0.00 92 1019.1
20260906143050 56 15 10.4 13.9 0.00 0.00 0.00 92 1018.8
20260906141544 56 31 7.0 10.4 0.00 0.00 0.00 93 1019.2
20260906140040 55 26 6.1 9.6 0.00 0.00 0.00 93 1019.2
20260906134535 55 34 8.7 11.3 0.00 0.00 0.00 94 1018.8
20260906133053 54 28 7.8 9.6 0.00 0.00 0.00 94 1018.7
20260906131538 54 32 7.0 9.6 0.00 0.00 0.00 94 1018.8
20260906130036 54 20 7.8 10.4 0.00 0.00 0.00 93 1019.3
20260906124536 54 13 7.8 13.9 0.00 0.00 0.00 93 1019.2
20260906123039 54 26 12.2 15.6 0.00 0.00 0.00 94 1018.8
20260906121541 54 17 11.3 14.8 0.00 0.00 0.00 93 1018.9
20260906120039 54 12 12.2 15.6 0.00 0.00 0.00 93 1019.1
20260906114544 54 26 13.0 16.5 0.00 0.00 0.00 93 1018.9
20260906113039 54 22 10.4 14.8 0.00 0.00 0.00 93 1019.0
20260906111543 54 17 12.2 14.8 0.00 0.00 0.00 93 1019.1
20260906110037 54 20 12.2 18.2 0.00 0.00 0.00 93 1019.1
20260906104535 54 13 12.2 19.1 0.00 0.00 0.00 93 1019.1
20260906103035 54 32 14.8 19.1 0.00 0.00 0.00 93 1019.2
20260906101543 54 15 13.0 17.4 0.00 0.00 0.00 93 1019.5
20260906100039 54 360 14.8 20.0 0.00 0.00 0.00 93 1019.2
20260906094536 53 11 13.0 20.9 0.00 0.00 0.00 93 1019.2
20260906093038 53 17 16.5 20.9 0.00 0.00 0.00 93 1019.2
20260906091535 53 13 17.4 22.6 0.00 0.00 0.00 93 1019.2
20260906090035 54 14 17.4 21.7 0.00 0.00 0.00 92 1019.5
20260906084538 53 13 16.5 21.7 0.00 0.00 0.00 92 1019.6
20260906083038 54 16 13.9 20.9 0.00 0.00 0.00 91 1019.6
20260906081536 54 5 17.4 21.7 0.00 0.00 0.00 90 1019.6
20260906080034 54 18 14.8 21.7 0.00 0.00 0.00 89 1019.8
20260906074537 55 28 16.5 23.5 0.00 0.00 0.00 89 1019.9
20260906073037 55 23 15.6 22.6 0.00 0.00 0.00 88 1020.2
20260906071535 55 26 16.5 21.7 0.00 0.00 0.00 88 1020.2
20260906070035 55 12 15.6 20.9 0.00 0.00 0.00 87 1020.2
20260906064535 56 14 15.6 20.0 0.00 0.00 0.00 86 1020.6
20260906063033 55 10 13.0 18.2 0.00 0.00 0.00 87 1020.6
20260906061538 56 18 15.6 20.9 0.00 0.00 0.00 86 1020.7
20260906060038 56 25 14.8 20.9 0.00 0.00 0.00 85 1020.6
20260906054552 56 24 16.5 20.9 0.00 0.00 0.00 85 1020.6
20260906053034 56 28 16.5 25.2 0.00 0.00 0.00 85 1020.3
20260906051556 56 22 19.1 24.3 0.00 0.00 0.00 85 1020.4
20260906050037 56 19 16.5 25.2 0.00 0.00 0.00 84 1020.6
20260906044533 57 15 16.5 23.5 0.00 0.00 0.00 83 1020.6
20260906043035 57 28 17.4 23.5 0.00 0.00 0.00 82 1019.9
20260906041535 57 10 19.1 26.9 0.00 0.00 0.00 80 1019.5
20260906040103 58 34 19.1 25.2 0.00 0.00 0.00 79 1019.9
20260906034534 58 15 20.9 26.1 0.00 0.00 0.00 75 1020.1
20260906033051 59 15 17.4 25.2 0.00 0.00 0.00 73 1020.3
20260906031536 59 13 20.9 26.1 0.00 0.00 0.00 74 1019.7
20260906030036 58 17 20.0 24.3 0.00 0.00 0.00 74 1019.2
20260906024534 59 24 17.4 24.3 0.00 0.00 0.00 72 1019.0
20260906023035 59 15 18.2 23.5 0.00 0.00 0.00 71 1018.8
20260906021535 60 22 19.1 24.3 0.00 0.00 0.00 70 1018.8
20260906020036 60 19 19.1 25.2 0.00 0.00 0.00 70 1018.8
20260906014535 61 19 19.1 24.3 0.00 0.00 0.00 68 1018.8
20260906013035 62 21 16.5 21.7 0.00 0.00 0.00 66 1018.7
20260906011535 63 15 13.9 21.7 0.00 0.00 0.00 63 1018.7
20260906010036 64 21 16.5 22.6 0.00 0.00 0.00 62 1018.7
20260906004537 66 29 17.4 23.5 0.00 0.00 0.00 59 1018.7
20260906003034 67 17 15.6 22.6 0.00 0.00 0.00 57 1018.8
20260906001534 67 15 17.4 21.7 0.00 0.00 0.00 56 1018.7
20260906000039 68 15 14.8 21.7 0.00 0.00 0.00 54 1018.8
20260905234537 69 5 14.8 20.9 0.00 0.00 0.00 52 1019.0
20260905233033 70 46 12.2 19.1 0.00 0.00 0.00 47 1018.9
20260905231538 71 15 13.9 20.0 0.00 0.00 0.00 48 1018.8